UAL1579 KMCI-KDEN

Flight info

Callsign UAL1579
Flight time N/A
Altitude 30000
Route WLDCT6 SLN J24 OATHE CLASH5
Aircraft A319/M-SDE3FGHIRWY/LB1

Departure

Time 2026-05-05 01:44
Airport Kansas City International Airport (KMCI)

Arrival

Time N/A
Airport Denver International Airport (KDEN)
Time Latitude Longitude Altitude Speed Heading
2026-05-05 01:16 39.30055 -94.72150 1015 ft 0 kts 282°
2026-05-05 01:24 39.30054 -94.72146 1015 ft 3 kts 282°
2026-05-05 01:24 39.30048 -94.72113 1015 ft 4 kts 282°
2026-05-05 01:24 39.30044 -94.72085 1015 ft 4 kts 286°
2026-05-05 01:24 39.30033 -94.72060 1015 ft 4 kts 346°
2026-05-05 01:25 39.30011 -94.72063 1015 ft 3 kts 13°
2026-05-05 01:25 39.30008 -94.72064 1015 ft 0 kts 13°
2026-05-05 01:27 39.30016 -94.72061 1014 ft 3 kts 15°
2026-05-05 01:27 39.30052 -94.72051 1014 ft 8 kts 14°
2026-05-05 01:27 39.30119 -94.72035 1014 ft 12 kts 355°
2026-05-05 01:27 39.30178 -94.72115 1014 ft 14 kts 287°
2026-05-05 01:28 39.30191 -94.72189 1015 ft 0 kts 285°
2026-05-05 01:28 39.30194 -94.72207 1014 ft 4 kts 283°
2026-05-05 01:28 39.30203 -94.72259 1014 ft 8 kts 283°
2026-05-05 01:28 39.30219 -94.72345 1014 ft 11 kts 284°
2026-05-05 01:29 39.30285 -94.72377 1015 ft 12 kts 13°
2026-05-05 01:29 39.30376 -94.72351 1015 ft 14 kts 13°
2026-05-05 01:29 39.30479 -94.72321 1014 ft 16 kts 13°
2026-05-05 01:29 39.30597 -94.72286 1014 ft 18 kts 13°
2026-05-05 01:30 39.30726 -94.72248 1014 ft 19 kts 13°
2026-05-05 01:30 39.30862 -94.72208 1014 ft 21 kts 12°
2026-05-05 01:30 39.31005 -94.72165 1014 ft 21 kts 13°
2026-05-05 01:30 39.31154 -94.72122 1014 ft 23 kts 13°
2026-05-05 01:31 39.31310 -94.72075 1014 ft 22 kts 13°
2026-05-05 01:31 39.31459 -94.72031 1014 ft 23 kts 13°
2026-05-05 01:31 39.31617 -94.71984 1014 ft 24 kts 13°
2026-05-05 01:31 39.31787 -94.71933 1015 ft 25 kts 13°
2026-05-05 01:32 39.31934 -94.71891 1015 ft 19 kts 12°
2026-05-05 01:32 39.32058 -94.71855 1015 ft 17 kts 13°
2026-05-05 01:32 39.32159 -94.71846 1015 ft 13 kts 332°
2026-05-05 01:32 39.32190 -94.71943 1015 ft 9 kts 281°
2026-05-05 01:33 39.32192 -94.71955 1015 ft 0 kts 280°
2026-05-05 01:43 39.32198 -94.71992 1016 ft 11 kts 281°
2026-05-05 01:43 39.32171 -94.72096 1016 ft 16 kts 202°
2026-05-05 01:43 39.32014 -94.72144 1016 ft 40 kts 193°
2026-05-05 01:44 39.31541 -94.72283 1016 ft 99 kts 193°
2026-05-05 01:44 39.30687 -94.72533 1018 ft 151 kts 193°
2026-05-05 01:44 39.29631 -94.72841 1515 ft 158 kts 194°
2026-05-05 01:44 39.28599 -94.73286 2135 ft 159 kts 219°
2026-05-05 01:45 39.28150 -94.74543 2731 ft 164 kts 269°
2026-05-05 01:45 39.28300 -94.76055 3174 ft 178 kts 269°
2026-05-05 01:45 39.28010 -94.77709 3456 ft 202 kts 254°
2026-05-05 01:45 39.27685 -94.79544 3779 ft 226 kts 258°
2026-05-05 01:46 39.27395 -94.81655 4246 ft 251 kts 260°
2026-05-05 01:46 39.27125 -94.83927 5102 ft 260 kts 261°
2026-05-05 01:46 39.26866 -94.86252 6106 ft 263 kts 262°
2026-05-05 01:46 39.26614 -94.88607 7083 ft 266 kts 262°
2026-05-05 01:47 39.26365 -94.90984 8083 ft 269 kts 263°
2026-05-05 01:47 39.26110 -94.93386 9052 ft 272 kts 263°
2026-05-05 01:47 39.25853 -94.95827 9713 ft 277 kts 262°
2026-05-05 01:47 39.25594 -94.98300 10301 ft 288 kts 263°
2026-05-05 01:48 39.25315 -95.00967 10613 ft 312 kts 263°
2026-05-05 01:48 39.25012 -95.03830 10992 ft 330 kts 263°
2026-05-05 01:48 39.24697 -95.06786 11715 ft 335 kts 263°
2026-05-05 01:48 39.24373 -95.09768 12548 ft 336 kts 263°
2026-05-05 01:49 39.24047 -95.12762 13397 ft 338 kts 263°
2026-05-05 01:49 39.23723 -95.15769 14120 ft 340 kts 263°
2026-05-05 01:49 39.23395 -95.18807 14786 ft 344 kts 263°
2026-05-05 01:49 39.23068 -95.21870 15482 ft 347 kts 263°
2026-05-05 01:50 39.22740 -95.24922 16162 ft 350 kts 263°
2026-05-05 01:50 39.22404 -95.28042 16855 ft 353 kts 263°
2026-05-05 01:50 39.22063 -95.31195 17558 ft 357 kts 264°
2026-05-05 01:50 39.21717 -95.34379 18218 ft 360 kts 264°
2026-05-05 01:51 39.21366 -95.37586 18847 ft 362 kts 263°
2026-05-05 01:51 39.21010 -95.40811 19491 ft 365 kts 263°
2026-05-05 01:51 39.20641 -95.44057 20150 ft 367 kts 263°
2026-05-05 01:51 39.20265 -95.47314 20789 ft 369 kts 263°
2026-05-05 01:52 39.19890 -95.50548 21385 ft 371 kts 263°
2026-05-05 01:52 39.19504 -95.53839 21965 ft 373 kts 263°
2026-05-05 01:52 39.19113 -95.57152 22544 ft 375 kts 262°
2026-05-05 01:52 39.18720 -95.60488 23106 ft 377 kts 262°
2026-05-05 01:53 39.18325 -95.63845 23587 ft 379 kts 262°
2026-05-05 01:53 39.17928 -95.67215 24036 ft 382 kts 263°
2026-05-05 01:53 39.17536 -95.70560 24478 ft 384 kts 263°
2026-05-05 01:53 39.17134 -95.73959 24946 ft 385 kts 263°
2026-05-05 01:54 39.16730 -95.77371 25421 ft 386 kts 263°